Hourly Data Report for January 13, 2018

All times are specified in Local Standard Time (LST). Add 1 hour to adjust for Daylight Saving Time where and when it is observed.

VANCOUVER INTL A
BRITISH COLUMBIA

49°11'41.000" N
123°11'02.000" W
4.30 m
1108395
71892
YVR

Download Data

Hourly Data (January 2018)
Hourly Data Report for January 13, 2018
Temp Definition
°C
Dew Point Temp Definition
°C
Rel Hum Definition
%
Wind Dir Definition
10's deg

Wind Spd Definition
km/h
Visibility Definition
km
Stn Press Definition
kPa
Hmdx Definition


Wind Chill Definition


Weather Definition


TIME
00:00 Legend Double Dagger 5.9 5.1 95 2 18 16.1 102.84     Rain
01:00 Legend Double Dagger 6.2 4.8 91 4 18 19.3 102.79     Rain
02:00 Legend Double Dagger 6.1 4.4 89 7 14 24.1 102.81     LegendNANA
03:00 Legend Double Dagger 6.2 4.5 89 9 16 24.1 102.87     LegendNANA
04:00 Legend Double Dagger 5.9 5.4 97 7 12 9.7 102.89     Drizzle,Fog
05:00 Legend Double Dagger 5.9 5.6 98 8 10 9.7 102.93     Drizzle,Fog
06:00 Legend Double Dagger 5.7 5.5 99 10 10 9.7 102.96     Drizzle,Fog
07:00 Legend Double Dagger 5.7 5.6 99 10 13 4.8 102.97     Drizzle,Fog
08:00 Legend Double Dagger 5.9 5.7 99 10 9 12.9 103.00     LegendNANA
09:00 Legend Double Dagger 6.6 6.4 99 9 10 12.9 103.05     LegendNANA
10:00 Legend Double Dagger 7.5 7.0 96 9 10 12.9 103.11     Cloudy
11:00 Legend Double Dagger 7.5 7.0 97 9 10 16.1 103.11     LegendNANA
12:00 Legend Double Dagger 8.0 7.5 96 9 7 19.3 103.08     LegendNANA
13:00 Legend Double Dagger 7.7 7.0 95 25 7 32.2 103.05     Cloudy
14:00 Legend Double Dagger 7.1 6.6 97 22 8 48.3 103.01     LegendNANA
15:00 Legend Double Dagger 6.9 6.6 98 25 5 8.1 103.00     Drizzle,Fog
16:00 Legend Double Dagger 6.5 6.2 98 22 8 6.4 102.97     Drizzle,Fog
17:00 Legend Double Dagger 6.1 5.9 99 36 3 6.4 102.92     Fog
18:00 Legend Double Dagger 6.7 6.5 99 15 3 3.6 102.87     Fog
19:00 Legend Double Dagger 5.6 5.4 99 15 5 0.6 102.84     Fog
20:00 Legend Double Dagger 6.0 5.8 98 27 16 32.2 102.84     LegendNANA
21:00 Legend Double Dagger 3.6 3.2 98 35 5 32.2 102.80     LegendNANA
22:00 Legend Double Dagger 4.0 3.9 99 3 8 32.2 102.79     Mainly Clear
23:00 Legend Double Dagger 4.8 4.7 99 31 5 32.2 102.77     LegendNANA

Notes on Data Quality.

Legend

  • E = Estimated
  • M = Missing
  • NA = Not Available
  • ‡ = Partner data that is not subject to review by the National Climate Archives
Date modified: